SCP
0 0 0 0 0 0 0 0 0 0 0 0 0 0 0 0 0 0 0 0 0 0 0 0 0 0 0 0 0 0 0 0 0 0 0 0 0 0 0 0 0 0 0
0 0 0 0 0 0 0 0 0 0 0 0 0 0 0 0 0 0 0 0 0 0 0 0 0 0 0 0 0 0 0 0 0 0 0 0 0 0 0 0 0 0 0
0 0 0 0 0 0 0 0 0 0 0 0 0 0 0 0 0 0 0 0 0 0 0 0 0 0 0 0 0 0 0 0 0 0 0 0 0 0 0 0 0 0 0
0 0 0 0 0 0 0 0 0 0 0 0 0 0 0 0 0 0 0 0 0 0 0 0 0 0 0 0 0 0 0 0 0 0 0 0 0 0 0 0 0 0 0
0 0 0 0 0 0 0 0 0 0 0 0 0 0 0 0 0 0 0 0 0 0 0 0 0 0 0 0 0 0 0 0 0 0 0 0 0 0 0 0 0 0 0
0 0 0 0 0 0 0 0 0 0 0 0 0 0 0 0 0 0 0 0 0 0 0 0 0 0 0 0 0 0 0 0 0 0 0 0 0 0 0 0 0 0 0
0 0 0 0 0 0 0 0 0 0 0 0 0 0 0 0 0 0 0 0 0 0 0 0 0 0 0 0 0 0 0 0 0 0 0 0 0 0 0 0 0 0 0
0 0 0 0 0 0 0 0 0 0 0 0 0 0 0 0 0 0 0 0 0 0 0 0 0 0 0 0 0 0 0 0 0 0 0 0 0 0 0 0 0 0 0
0 0 0 0 0 0 0 0 0 0 0 0 0 0 0 0 0 0 0 0 0 0 0 0 0 0 0 0 0 0 0 0 0 0 0 0 0 0 0 0 0 0 0
0 0 0 0 0 0 0 0 0 0 0 0 0 0 0 0 0 0 0 0 0 0 0 0 0 0 0 0 0 0 0 0 0 0 0 0 0 0 0 0 0 0 0
0 0 0 0 0 0 0 0 0 0 0 0 0 0 0 0 0 0 0 0 0 0 0 0 0 0 0 0 0 0 0 0 0 0 0 0 0 0 0 0 0 0 0
0 0 0 0 0 0 0 0 0 0 0 0 0 0 0 0 0 0 0 0 0 0 0 0 0 0 0 0 0 0 0 0 0 0 0 0 0 0 0 0 0 0 0
0 0 0 0 0 0 0 0 0 0 0 0 0 0 0 0 0 0 0 0 0 0 0 0 0 0 0 0 0 0 0 0 0 0 0 0 0 0 0 0 0 0 0
0 0 0 0 0 0 0 0 0 0 0 0 0 0 0 0 0 0 0 0 0 0 0 0 0 0 0 0 0 0 0 0 0 0 0 0 0 0 0 0 0 0 0
0 0 0 0 0 0 0 0 0 0 0 0 0 0 0 0 0 0 0 0 0 0 0 0 0 0 0 0 0 0 0 0 0 0 0 0 0 0 0 0 0 0 0
0 0 0 0 0 0 0 0 0 0 0 0 0 0 0 0 0 0 0 0 0 0 0 0 0 0 0 0 0 0 0 0 0 0 0 0 0 0 0 0 0 0 0
0 0 0 0 0 0 0 0 0 0 0 0 0 0 0 0 0 0 0 0 0 0 0 0 0 0 0 0 0 0 0 0 0 0 0 0 0 0 0 0 0 0 0
0 0 0 0 0 0 0 0 0 0 0 0 0 0 0 0 0 0 0 0 0 0 0 0 0 0 0 0 0 0 0 0 0 0 0 0 0 0 0 0 0 0 0
0 0 0 0 0 0 0 0 0 0 0 0 0 0 0 0 0 0 0 0 0 0 0 0 0 0 0 0 0 0 0 0 0 0 0 0 0 0 0 0 0 0 0
0 0 0 0 0 0 0 0 0 0 0 0 0 0 0 0 0 0 0 0 0 0 0 0 0 0 0 0 0 0 0 0 0 0 0 0 0 0 0 0 0 0 0
0 0 0 0 0 0 0 0 0 0 0 0 0 0 0 0 0 0 0 0 0 0 0 0 0 0 0 0 0 0 0 0 0 0 0 0 0 0 0 0 0 0 0
0 0 0 0 0 0 0 0 0 0 0 0 0 0 0 0 0 0 0 0 0 0 0 0 0 0 0 0 0 0 0 0 0 0 0 0 0 0 0 0 0 0 0
0 0 0 0 0 0 0 0 0 0 0 0 0 0 0 0 0 0 0 0 0 0 0 0 0 0 0 0 0 0 0 0 0 0 0 0 0 0 0 0 0 0 0
0 0 0 0 0 0 0 0 0 0 0 0 0 0 0 0 0 0 0 0 0 0 0 0 0 0 0 0 0 0 0 0 0 0 0 0 0 0 0 0 0 0 0
0 0 0 0 0 0 0 0 0 0 0 0 0 0 0 0 0 0 0 0 0 0 0 0 0 0 0 0 0 0 0 0 0 0 0 0 0 0 0 0 0 0 0
0 0 0 0 0 0 0 0 0 0 0 0 0 0 0 0 0 0 0 0 0 0 0 0 0 0 0 0 0 0 0 0 0 0 0 0 0 0 0 0 0 0 0
Wind_Speed
8 8 9 8 9 9 8 8 7 6 6 6 6 6 5 5 5 5 4 4 4 3 3 3 3 4 3 3 3 3 4 5 11 10 6 6 7 8 8 7 7 8 9
8 9 10 9 9 9 8 7 7 7 6 6 6 6 6 5 5 5 4 3 3 3 3 3 4 3 4 4 4 4 5 5 8 14 10 7 8 8 9 9 8 7 7
8 10 10 9 9 9 8 7 7 7 6 6 6 6 5 5 4 4 3 3 3 3 3 3 4 4 4 4 5 5 5 6 6 9 11 8 7 6 8 8 7 6 7
9 10 9 8 8 8 7 7 7 6 6 6 5 5 5 4 4 3 3 3 2 2 3 3 3 4 4 5 5 5 5 6 6 8 9 8 7 6 6 8 9 6 6
9 10 9 8 8 8 7 7 6 6 6 5 5 5 4 3 3 3 2 2 2 2 3 3 3 5 6 6 5 5 6 6 6 7 8 9 8 7 7 7 9 9 7
9 9 8 8 8 7 7 6 6 6 5 5 5 4 4 3 4 4 2 1 1 2 3 4 4 4 6 9 10 10 9 8 8 8 8 9 10 9 8 8 8 9 7
9 9 8 8 8 7 7 6 6 5 5 5 4 4 3 2 4 4 3 1 1 2 3 4 4 4 5 5 8 10 9 11 12 9 10 10 10 9 9 10 8 8 8
9 8 8 8 8 7 6 6 5 4 4 3 3 3 2 2 5 5 4 1 1 2 3 4 5 5 5 7 6 6 6 6 8 6 7 8 7 7 7 8 8 8 6
9 9 8 8 9 8 7 6 4 4 4 3 2 2 2 2 5 5 5 1 2 3 3 4 5 5 10 12 7 7 8 6 8 10 11 10 12 12 9 5 5 5 6
9 8 7 7 8 7 7 5 3 3 3 2 2 1 1 2 5 6 5 1 2 3 4 4 6 8 11 12 6 6 8 7 6 6 7 7 7 8 9 5 4 4 4
8 8 7 6 6 6 5 4 4 4 3 2 1 1 1 2 5 6 6 2 2 3 4 4 4 11 12 12 10 5 8 8 5 5 5 4 4 3 4 4 3 3 3
9 8 7 6 5 5 6 5 4 4 3 2 1 1 1 2 3 6 7 7 6 4 4 4 5 12 12 11 8 8 10 7 3 3 4 4 4 3 3 3 4 3 2
9 8 7 6 5 5 5 5 4 3 2 2 1 1 2 2 3 7 8 9 10 5 4 9 11 12 10 7 7 8 5 2 2 3 3 3 3 3 2 2 3 3 3
10 8 7 7 6 4 3 3 3 3 2 2 1 1 2 2 3 3 3 4 6 6 5 6 10 10 7 5 4 4 2 2 2 3 3 3 2 2 2 2 2 2 2
10 8 7 6 6 5 3 2 3 2 3 3 2 2 2 3 4 8 6 4 4 5 5 3 2 2 2 2 2 2 2 2 2 2 2 2 2 2 2 2 2 2 1
10 8 6 5 5 4 4 2 0 1 1 2 2 2 3 5 8 9 10 10 10 9 4 3 3 3 3 3 3 3 2 2 3 2 2 2 2 2 1 2 1 1 1
9 8 6 6 5 5 4 4 2 1 2 2 3 4 5 6 7 8 9 8 7 5 2 3 3 3 3 3 3 3 3 2 2 2 2 2 1 1 1 1 1 1 1
7 7 7 6 5 5 4 3 3 2 1 2 4 6 6 6 6 7 7 5 3 2 2 3 4 4 4 3 3 3 3 2 2 2 2 2 1 1 1 1 1 1 1
7 6 5 5 4 4 4 3 3 3 2 2 2 3 5 6 6 6 5 1 2 3 3 3 3 4 4 3 3 3 3 2 2 2 2 2 1 1 1 1 1 1 0
5 7 7 5 5 4 4 4 3 3 3 2 2 3 2 1 1 2 2 2 2 3 3 4 4 4 3 3 3 3 3 3 3 3 3 2 2 2 2 2 2 1 1
6 6 8 5 5 5 4 4 4 4 3 3 3 4 5 2 2 3 3 3 3 4 4 4 4 4 3 3 3 3 4 3 3 3 3 3 2 2 2 2 2 2 1
6 6 6 5 5 4 4 4 4 4 4 4 3 4 6 2 2 3 3 4 4 4 4 4 4 4 4 4 3 4 4 4 4 3 3 3 3 2 2 2 2 2 2
6 6 6 5 5 5 5 4 4 4 4 4 4 3 3 3 4 4 4 4 4 4 3 3 4 4 4 4 4 4 5 5 4 4 4 4 3 3 3 3 3 3 3
7 7 7 6 5 5 5 5 5 5 5 4 4 4 4 4 4 5 4 4 4 4 4 4 5 6 7 5 4 4 5 5 4 4 6 5 4 4 3 3 4 4 3
7 7 7 6 6 6 5 5 5 5 4 4 4 4 4 4 4 4 4 4 5 5 5 5 4 5 7 8 7 6 7 9 7 5 5 5 5 5 4 4 4 4 3
7 7 6 5 5 5 5 5 5 5 5 4 4 4 4 4 5 4 4 4 4 5 5 5 6 7 7 7 8 9 10 10 9 8 6 5 5 5 5 4 5 4 4
Wind_Direction
120 117 114 111 111 111 111 111 111 104 100 100 100 95 86 77 71 75 68 57 53 34 21 9 352 348 343 334 331 322 309 300 292 300 309 321 325 323 321 317 313 312 313
117 113 111 110 109 108 108 107 107 104 99 101 100 93 86 79 75 78 73 60 51 31 9 360 348 347 341 335 329 318 310 303 297 301 309 317 318 317 316 315 315 315 310
116 114 112 112 112 112 111 108 104 104 100 94 95 95 93 89 84 78 75 61 44 24 1 350 339 339 332 325 318 311 307 305 298 298 303 309 309 314 314 311 308 308 313
118 117 116 116 116 114 111 108 105 105 104 99 95 94 94 94 88 77 67 55 34 8 350 338 329 327 318 317 312 307 308 306 300 298 300 307 309 312 314 319 319 320 316
124 120 120 116 113 111 109 107 104 100 100 102 99 91 89 94 83 74 63 43 11 346 336 328 318 315 312 313 311 310 309 305 304 303 304 308 312 322 322 318 315 316 308
128 126 124 122 118 116 116 115 109 104 102 100 96 95 86 74 62 56 54 29 346 332 326 321 315 312 314 318 314 312 309 306 305 303 303 305 309 314 313 314 314 315 311
129 130 132 132 128 126 124 118 115 112 110 103 94 88 82 56 46 36 30 25 334 315 311 313 316 310 309 302 304 311 309 305 303 298 297 300 304 309 311 310 309 307 301
137 139 140 137 132 129 124 120 118 114 110 105 93 83 75 29 21 16 11 20 318 302 299 298 299 302 305 309 304 303 301 296 301 299 288 293 299 304 304 303 301 301 293
149 150 149 145 139 137 133 129 125 120 108 101 99 78 52 2 2 2 3 343 310 305 298 292 291 293 304 316 316 308 306 301 311 312 308 310 316 323 327 320 318 318 311
157 150 144 142 141 139 136 129 119 118 113 105 87 66 27 335 342 348 348 319 303 303 299 293 293 304 309 316 312 305 304 307 311 314 314 320 322 325 336 333 320 312 309
139 134 131 132 131 129 123 117 121 115 108 95 80 24 345 319 325 332 334 321 288 295 297 296 294 307 310 312 312 299 298 309 310 310 309 310 317 325 336 342 340 319 303
135 133 131 130 127 126 125 122 118 120 118 108 79 15 332 317 315 320 328 323 315 290 287 287 290 305 309 311 311 308 311 315 307 305 306 310 318 324 333 341 345 351 360
135 135 134 128 121 128 132 132 128 126 122 117 98 336 309 304 308 321 321 320 316 305 286 296 303 306 310 310 309 315 320 311 299 297 297 301 311 316 325 335 346 354 12
141 141 141 138 133 128 128 132 136 143 144 150 178 257 286 296 294 300 299 306 309 307 300 297 303 305 310 315 316 319 318 299 287 284 291 299 315 328 336 342 336 338 353
142 143 143 141 142 139 133 137 150 169 175 177 196 215 256 285 294 310 315 305 302 291 304 302 301 303 304 311 310 306 309 314 304 298 299 306 314 324 329 345 350 357 7
148 152 153 151 146 143 141 133 96 173 234 251 257 263 254 280 303 311 314 314 314 314 315 296 289 286 287 293 296 297 293 292 294 294 291 291 294 302 316 340 355 8 356
156 156 155 154 154 153 154 157 162 347 342 343 334 323 312 310 312 316 317 319 322 332 313 291 288 286 286 288 286 283 281 284 289 287 282 283 286 291 301 322 337 348 342
147 152 153 154 153 154 158 160 160 167 203 296 321 324 327 322 322 325 329 336 329 337 291 283 284 285 284 283 281 278 276 280 279 278 277 278 272 262 262 268 276 281 289
154 155 151 146 148 152 154 157 164 177 198 238 287 309 324 325 326 334 352 350 282 283 279 277 278 282 283 280 279 278 270 260 258 256 253 251 250 239 242 246 251 257 245
158 158 153 152 154 159 164 168 174 184 201 224 247 264 286 305 307 313 319 285 272 271 272 273 276 276 276 273 275 277 276 265 254 249 249 246 240 235 235 234 231 227 229
160 162 159 157 167 171 174 181 183 187 201 219 235 252 261 234 246 257 263 264 264 268 272 273 273 274 270 267 266 266 265 261 249 244 241 238 231 231 234 231 229 220 214
164 166 169 172 172 177 182 186 189 196 206 220 234 261 278 256 243 250 254 258 258 257 259 262 264 261 255 253 255 257 260 259 250 242 240 235 229 227 223 214 214 211 206
169 169 172 176 176 180 185 192 197 204 213 220 229 237 246 245 245 247 252 255 257 258 256 255 261 265 258 250 244 242 248 251 243 232 231 230 227 221 213 212 209 208 212
177 178 180 181 183 189 193 197 203 209 215 221 226 233 239 243 248 252 255 256 256 257 254 251 253 258 260 258 252 247 249 253 242 227 221 222 223 219 212 213 212 212 216
182 184 186 186 189 193 197 201 205 211 217 223 227 233 241 246 251 255 254 254 256 257 259 256 255 255 256 256 255 253 256 259 249 224 213 215 219 217 212 214 211 206 208
186 189 189 188 192 195 199 204 208 212 219 225 229 232 238 243 249 252 253 253 255 258 260 256 253 256 259 258 258 260 258 255 245 226 208 208 212 214 206 211 212 210 209